TimeEDT,TemperatureF,Dew PointF,Humidity,Sea Level PressureIn,VisibilityMPH,Wind Direction,Wind SpeedMPH,Gust SpeedMPH,PrecipitationIn,Events,Conditions,WindDirDegrees,DateUTC
12:51 AM,51.1,48.0,89,30.18,10.0,Calm,Calm,-,N/A,,Clear,0,2012-10-23 04:51:00
1:51 AM,51.1,48.0,89,30.17,10.0,Calm,Calm,-,N/A,,Clear,0,2012-10-23 05:51:00
2:51 AM,50.0,46.9,89,30.15,10.0,Calm,Calm,-,N/A,,Clear,0,2012-10-23 06:51:00
3:51 AM,50.0,48.0,93,30.15,10.0,NW,3.5,-,N/A,,Clear,310,2012-10-23 07:51:00
4:51 AM,50.0,48.0,93,30.16,10.0,West,4.6,-,N/A,,Clear,280,2012-10-23 08:51:00
5:51 AM,55.0,53.1,93,30.17,10.0,WNW,3.5,-,N/A,,Clear,300,2012-10-23 09:51:00
6:51 AM,59.0,55.0,87,30.18,10.0,WNW,3.5,-,N/A,,Clear,300,2012-10-23 10:51:00
7:51 AM,61.0,55.0,81,30.19,10.0,NW,5.8,-,N/A,,Clear,320,2012-10-23 11:51:00
8:51 AM,64.9,55.0,70,30.20,10.0,NW,3.5,-,N/A,,Clear,310,2012-10-23 12:51:00
9:51 AM,66.9,55.0,66,30.20,10.0,WNW,6.9,-,N/A,,Clear,300,2012-10-23 13:51:00
10:51 AM,68.0,55.0,63,30.20,10.0,WNW,5.8,-,N/A,,Clear,300,2012-10-23 14:51:00
11:51 AM,69.1,55.0,61,30.20,10.0,Variable,5.8,-,N/A,,Clear,0,2012-10-23 15:51:00
12:51 PM,70.0,54.0,57,30.18,10.0,West,5.8,-,N/A,,Clear,280,2012-10-23 16:51:00
1:51 PM,71.1,50.0,47,30.16,10.0,WNW,3.5,-,N/A,,Clear,290,2012-10-23 17:51:00
2:51 PM,71.1,50.0,47,30.14,10.0,SSW,4.6,-,N/A,,Clear,200,2012-10-23 18:51:00
3:51 PM,71.1,51.1,49,30.14,10.0,South,3.5,-,N/A,,Clear,190,2012-10-23 19:51:00
4:51 PM,70.0,52.0,53,30.14,10.0,SW,3.5,-,N/A,,Clear,220,2012-10-23 20:51:00
5:51 PM,68.0,53.1,59,30.15,10.0,SSW,3.5,-,N/A,,Clear,210,2012-10-23 21:51:00
6:51 PM,64.0,52.0,65,30.15,10.0,SSW,4.6,-,N/A,,Clear,200,2012-10-23 22:51:00
7:51 PM,63.0,52.0,67,30.17,10.0,SSW,4.6,-,N/A,,Clear,210,2012-10-23 23:51:00
8:51 PM,68.0,53.1,59,30.17,10.0,SSW,5.8,-,N/A,,Clear,200,2012-10-24 00:51:00
9:51 PM,69.1,53.1,57,30.17,10.0,SSW,5.8,-,N/A,,Clear,200,2012-10-24 01:51:00
10:51 PM,70.0,52.0,53,30.17,10.0,South,6.9,-,N/A,,Clear,190,2012-10-24 02:51:00
11:51 PM,70.0,54.0,57,30.16,10.0,SSW,8.1,-,N/A,,Clear,210,2012-10-24 03:51:00